Location: Azul
(36.7830°S, 59.8500°W)
Time: 18:45:12
(UTC-03:00)

ISS - Pass Details

Date: 05 August 2020
Orbit: 418 x 420 km, 51.6° (Epoch: 08 August)

Event Time Altitude Azimuth Distance (km) Brightness Sun altitude
Exits shadow 06:53:51 - 203° (SSW) 1,759 -0.9 -12.2°
Reaches altitude 10° 06:54:44 10° 192° (SSW) 1,529 -1.2 -12.0°
Maximum altitude 06:56:45 15° 156° (SSE) 1,270 -1.2 -11.6°
Drops below altitude 10° 06:58:46 10° 120° (ESE) 1,523 -0.2 -11.2°
Sets 07:01:35 0° 95° (E) 2,382 1.7 -10.7°
